CCA1916 ZHCC-ZBAA

Flight info

Callsign CCA1916
Flight time N/A
Altitude 35100
Route OKT9W OKTOX W56 DUGEB DUGEB6J
Aircraft B738/M-SDE2E3FGHIRWXY/LB1

Departure

Time 2026-05-08 15:08
Airport Zhengzhou Xinzheng International Airport (ZHCC)

Arrival

Time N/A
Airport Beijing Capital International Airport (ZBAA)
Time Latitude Longitude Altitude Speed Heading
2026-05-08 14:55 34.53136 113.85267 505 ft 0 kts 202°
2026-05-08 14:59 34.53156 113.85277 505 ft 2 kts 202°
2026-05-08 14:59 34.53164 113.85281 505 ft 2 kts 201°
2026-05-08 15:00 34.53175 113.85290 505 ft 2 kts 237°
2026-05-08 15:00 34.53180 113.85308 505 ft 2 kts 271°
2026-05-08 15:00 34.53178 113.85319 505 ft 1 kts 291°
2026-05-08 15:00 34.53176 113.85326 505 ft 0 kts 292°
2026-05-08 15:02 34.53177 113.85322 505 ft 2 kts 290°
2026-05-08 15:02 34.53188 113.85288 505 ft 6 kts 291°
2026-05-08 15:02 34.53209 113.85236 505 ft 6 kts 298°
2026-05-08 15:02 34.53229 113.85183 505 ft 7 kts 294°
2026-05-08 15:03 34.53257 113.85133 505 ft 1 kts 311°
2026-05-08 15:03 34.53257 113.85132 505 ft 0 kts 311°
2026-05-08 15:03 34.53274 113.85111 505 ft 6 kts 320°
2026-05-08 15:03 34.53323 113.85075 505 ft 9 kts 312°
2026-05-08 15:04 34.53347 113.85004 505 ft 7 kts 290°
2026-05-08 15:04 34.53370 113.84940 505 ft 8 kts 295°
2026-05-08 15:04 34.53400 113.84853 505 ft 11 kts 292°
2026-05-08 15:04 34.53447 113.84763 505 ft 12 kts 325°
2026-05-08 15:05 34.53520 113.84703 505 ft 11 kts 329°
2026-05-08 15:05 34.53572 113.84629 505 ft 10 kts 303°
2026-05-08 15:05 34.53605 113.84544 505 ft 10 kts 290°
2026-05-08 15:05 34.53633 113.84454 505 ft 10 kts 290°
2026-05-08 15:06 34.53662 113.84363 505 ft 10 kts 292°
2026-05-08 15:06 34.53690 113.84274 505 ft 11 kts 290°
2026-05-08 15:06 34.53742 113.84223 505 ft 9 kts 19°
2026-05-08 15:06 34.53809 113.84258 505 ft 10 kts 22°
2026-05-08 15:07 34.53860 113.84306 505 ft 8 kts 82°
2026-05-08 15:07 34.53845 113.84380 505 ft 9 kts 112°
2026-05-08 15:07 34.53715 113.84757 505 ft 82 kts 113°
2026-05-08 15:07 34.53394 113.85706 505 ft 144 kts 112°
2026-05-08 15:08 34.52928 113.87059 724 ft 175 kts 116°
2026-05-08 15:08 34.52607 113.88032 1152 ft 180 kts 114°
2026-05-08 15:08 34.51931 113.90112 1933 ft 196 kts 115°
2026-05-08 15:08 34.51361 113.91806 2308 ft 213 kts 115°
2026-05-08 15:09 34.50746 113.93626 2581 ft 231 kts 115°
2026-05-08 15:09 34.50072 113.95622 2990 ft 245 kts 114°
2026-05-08 15:09 34.49387 113.97652 3759 ft 250 kts 114°
2026-05-08 15:09 34.48673 113.99759 4352 ft 262 kts 114°
2026-05-08 15:10 34.47932 114.01949 5086 ft 268 kts 114°
2026-05-08 15:10 34.47194 114.04123 5972 ft 267 kts 114°
2026-05-08 15:10 34.46477 114.06296 6785 ft 269 kts 109°
2026-05-08 15:10 34.46087 114.08622 7583 ft 271 kts 98°
2026-05-08 15:11 34.45858 114.11001 8355 ft 273 kts 97°
2026-05-08 15:11 34.45615 114.13404 9076 ft 276 kts 97°
2026-05-08 15:11 34.45354 114.15849 9767 ft 280 kts 96°
2026-05-08 15:11 34.45095 114.18307 10412 ft 285 kts 96°
2026-05-08 15:12 34.44840 114.20851 10890 ft 296 kts 96°
2026-05-08 15:12 34.44591 114.23398 11536 ft 300 kts 95°
2026-05-08 15:12 34.44331 114.26060 12194 ft 307 kts 95°
2026-05-08 15:12 34.44060 114.28754 12843 ft 320 kts 95°
2026-05-08 15:13 34.43777 114.31563 13489 ft 333 kts 95°
2026-05-08 15:13 34.43480 114.34461 14130 ft 345 kts 95°
2026-05-08 15:13 34.43161 114.37513 14783 ft 356 kts 95°
2026-05-08 15:13 34.42863 114.40635 15430 ft 365 kts 91°
2026-05-08 15:14 34.42886 114.43883 16084 ft 372 kts 82°
2026-05-08 15:14 34.43420 114.47056 16727 ft 373 kts 71°
2026-05-08 15:14 34.44262 114.50132 17377 ft 375 kts 68°
2026-05-08 15:14 34.45307 114.53114 18002 ft 374 kts 55°
2026-05-08 15:15 34.47130 114.55463 18649 ft 367 kts 30°
2026-05-08 15:15 34.49551 114.56699 19321 ft 360 kts
2026-05-08 15:15 34.52135 114.57104 19996 ft 357 kts
2026-05-08 15:15 34.54708 114.57348 20644 ft 357 kts
2026-05-08 15:16 34.57341 114.57594 21305 ft 357 kts
2026-05-08 15:16 34.59961 114.57840 21964 ft 356 kts 360°
2026-05-08 15:16 34.62568 114.58086 22625 ft 355 kts 359°
2026-05-08 15:16 34.65123 114.58328 23278 ft 353 kts 359°
2026-05-08 15:17 34.67697 114.58572 23940 ft 350 kts 358°
2026-05-08 15:17 34.70246 114.58816 24601 ft 347 kts 358°
2026-05-08 15:17 34.72722 114.59052 25249 ft 343 kts 358°
2026-05-08 15:17 34.75223 114.59292 25914 ft 338 kts 357°
2026-05-08 15:18 34.77644 114.59525 26569 ft 332 kts 356°
2026-05-08 15:18 34.80056 114.59756 27232 ft 325 kts 356°
2026-05-08 15:18 34.82379 114.59978 27883 ft 317 kts 355°
2026-05-08 15:18 34.84641 114.60194 28534 ft 308 kts 355°
2026-05-08 15:19 34.86847 114.60407 29188 ft 297 kts 354°
2026-05-08 15:19 34.88943 114.60611 29833 ft 285 kts 353°
2026-05-08 15:19 34.90913 114.60803 30468 ft 270 kts 353°
2026-05-08 15:19 34.92819 114.60992 31093 ft 252 kts 352°
2026-05-08 15:20 34.94546 114.61164 31564 ft 234 kts 350°
2026-05-08 15:20 34.96236 114.61315 31408 ft 238 kts 348°
2026-05-08 15:20 34.98016 114.61470 30855 ft 261 kts
2026-05-08 15:20 34.99892 114.61676 30618 ft 261 kts
2026-05-08 15:21 35.01644 114.61677 29803 ft 255 kts 306°
2026-05-08 15:21 35.03567 114.61378 26885 ft 367 kts 18°
2026-05-08 15:21 35.05869 114.61175 26296 ft 322 kts 330°
2026-05-08 15:21 35.07555 114.60075 28807 ft 245 kts 331°
2026-05-08 15:22 35.09201 114.59680 29645 ft 244 kts 355°
2026-05-08 15:22 35.11041 114.60281 29205 ft 288 kts 15°
2026-05-08 15:22 35.12858 114.61271 29875 ft 264 kts
2026-05-08 15:22 35.14542 114.62042 30381 ft 244 kts
2026-05-08 15:23 35.16155 114.62926 30063 ft 275 kts 38°
2026-05-08 15:23 35.17289 114.65253 28406 ft 354 kts 59°
2026-05-08 15:23 35.18920 114.66724 26201 ft 342 kts 317°
2026-05-08 15:23 35.19904 114.64364 23411 ft 350 kts 265°
2026-05-08 15:24 35.19540 114.62109 26950 ft 227 kts 274°
2026-05-08 15:24 35.19684 114.60693 28543 ft 162 kts 296°
2026-05-08 15:24 35.20602 114.59450 27362 ft 238 kts 332°
2026-05-08 15:24 35.22457 114.59178 26963 ft 274 kts 11°
2026-05-08 15:25 35.24150 114.60279 28030 ft 255 kts 32°
2026-05-08 15:25 35.25552 114.61647 28368 ft 243 kts 20°
2026-05-08 15:25 35.26861 114.63297 27082 ft 322 kts 84°
2026-05-08 15:25 35.26527 114.64500 22117 ft 416 kts 206°
2026-05-08 15:26 35.25225 114.62231 20455 ft 335 kts 257°
2026-05-08 15:26 35.24814 114.61273 25512 ft 111 kts 253°
2026-05-08 15:26 35.24551 114.61067 25149 ft 120 kts 250°
2026-05-08 15:27 35.24418 114.61289 20695 ft 225 kts 251°
2026-05-08 15:27 35.24427 114.61700 15941 ft 160 kts 22°
2026-05-08 15:27 35.24359 114.61785 11694 ft 156 kts 33°
2026-05-08 15:27 35.24314 114.61727 7919 ft 130 kts 24°